Simultaneous Nadir Overpasses (SNOs) Predictions

Prediction of SNOs between GOES-14 and NOAA-20 Satellite Orbit:

Table of predicted SNOs for the next 14.0 days since TLE Epoch: 11/27/2021
Index Date Time (GOES-14) GOES-14 Lat,Lon NOAA-20 Lat,Lon Distance(km) Time Diff (sec)
1 11/27/2021 20:20:29 -0.07,-104.16 -0.13,-104.30 17.02 80
2 11/30/2021 08:26:12 0.06,-104.44 0.20,-105.05 70.62 80
3 12/01/2021 08:04:46 0.08,-104.43 -0.81,-100.52 445.83 80
4 12/02/2021 20:26:40 -0.05,-104.16 -0.41,-105.81 187.38 80
5 12/03/2021 20:10:35 -0.06,-104.17 0.60,-101.27 330.45 80
6 12/05/2021 08:32:22 0.04,-104.45 0.53,-106.54 239.39 80
7 12/06/2021 08:10:57 0.06,-104.44 -0.48,-102.01 276.75 80
8 12/07/2021 20:32:51 -0.03,-104.14 -0.74,-107.30 359.55 80
9 12/08/2021 20:16:46 -0.04,-104.15 0.28,-102.76 158.11 80
10 12/10/2021 08:38:34 0.02,-104.46 0.79,-108.05 408.82 80
